Location: Kelshall
(52.0000°N, 0.0500°W)
Time: 12:44:20
(UTC+00:00)

Meteor 1-22 Rocket - Pass Details

Date: 18 September 2020
Orbit: 786 x 941 km, 81.2° (Epoch: 23 October)

Event Time Altitude Azimuth Distance (km) Brightness Sun altitude
Exits shadow 20:43:04 45° 162° (SSE) 1,214 4.6 -23.2°
Maximum altitude 20:44:50 67° 98° (E) 984 4.2 -23.4°
Drops below altitude 10° 20:50:50 10° 17° (NNE) 2,647 7.0 -24.2°
Sets 20:53:22 0° 15° (NNE) 3,606 7.8 -24.5°
